Regional Weather Roundup
Issued by NWS

Home | Current Version | Previous Version | Text Only | Print | Product List | Glossary Off
Versions: 1 2 3 4 5 6 7 8 9 10 11 12 13 14 15 16 17 18 19 20 21 22 23 24 25 26 27 28 29 30 31 32 33 34 35 36 37 38 39 40 41 42 43 44 45 46 47 48 49 50

000
ASUS45 KBOI 281310
RWRID

IDAHO REGIONAL WEATHER ROUNDUP
NATIONAL WEATHER SERVICE BOISE ID
700 AM MDT TUE MAR 28 2017

NOTE: "FAIR" INDICATES FEW OR NO CLOUDS BELOW 12000 FEET
WITH NO SIGNIFICANT WEATHER AND/OR OBSTRUCTIONS TO VISIBILITY

IDZ012-014-281400-
SOUTHWEST IDAHO


CITY           SKY/WX    TMP DP  RH WIND       PRES   REMARKS
BOISE          CLEAR     34  30  85 CALM      30.25R
CALDWELL       CLEAR     34  30  85 CALM      30.28R
MOUNTAIN HOME  CLEAR     33  33 100 NW8       30.23R WCI  25
$$

IDZ016-017-281400-
SOUTHCENTRAL IDAHO


CITY           SKY/WX    TMP DP  RH WIND       PRES   REMARKS
BURLEY         CLOUDY    35  27  72 W17       30.18R WCI  25
JEROME         CLEAR     31  29  92 SW10      30.20R WCI  22
TWIN FALLS     CLEAR     32  26  78 SW14      30.20R WCI  22
$$

IDZ019>023-281400-
SOUTHEAST IDAHO


CITY           SKY/WX    TMP DP  RH WIND       PRES   REMARKS
IDAHO FALLS    CLEAR     30  29  96 SW7       30.16R WCI  23
POCATELLO      MOCLDY    34  31  88 SW13      30.18R WCI  25
REXBURG        FOG       31  31 100 W3        30.14R VSB 3/4
$$

IDZ006-010-011-018-031-032-281400-
CENTRAL IDAHO MOUNTAINS


CITY           SKY/WX    TMP DP  RH WIND       PRES   REMARKS
MCCALL         CLEAR     23  19  85 CALM      30.19S
HAILEY         CLEAR     30  21  69 NW7       30.18R WCI  23
STANLEY          N/A     14  12  92 CALM      30.21R
SALMON         CLOUDY    34  25  69 CALM      30.21S
CHALLIS        CLEAR     25  19  78 CALM      30.20R
$$

IDZ002-004-006-007-026-281400-
NORTHERN IDAHO


CITY           SKY/WX    TMP DP  RH WIND       PRES   REMARKS
LEWISTON       MOCLDY    37  31  78 CALM      30.26R
LOWELL           N/A     39  36  89 CALM      30.31S
COEUR D`ALENE  CLOUDY    38  34  85 S6        30.22R WCI  33
MULLAN PASS    FOG       27  25  92 SW7       30.12S VSB 3/4 WCI  19
$$



USA.gov is the U.S. government's official web portal to all federal, state and local government web resources and services.